Volver al catálogo

MORSAT-1

ActivoMilitarSSO
NORAD 67278·PAYLOAD·🇷🇺 Russia
Este nombre de satélite aún no ha sido confirmado por fuentes oficiales.

Lanzado Dec 28, 2025 desde Vostochny Cosmodrome

Loading…

Próximos Pases (próximas 24 horas)

TLE

ActualizadoSource: Space-Track

Época: Sep 14, 2026, 10:34 UTC

1 67278U 25313AG  26257.44061143  .00005058  00000-0  21460-3 0  9993
2 67278  97.3824 330.5293 0015426  58.2942 301.9796 15.23440331 39540

Sigue MORSAT-1 en tiempo real con AllMySat

Download on the App Store